Other Public Products
Issued by NWS Charleston, SC

Home | Current Version | Previous Version | Text Only | Print | Product List | Glossary On
Versions: 1 2 3 4 5 6 7 8 9 10 11 12 13 14 15 16 17 18 19 20 21 22 23 24 25 26 27 28 29 30 31 32 33 34 35 36 37 38 39 40 41 42 43 44 45 46 47 48 49 50
684
FPUS82 KCHS 262127
OPUCHS

TEST...KCHS/KSAV Gateway Observations...TEST
National Weather Service Charleston SC
500 PM EDT THU APR 26 2018

NOTE: "fair" indicates few or no clouds below 12,000 feet with no
significant weather and/or obstructions to visibility.

SCZ050-WAZ558-NCZ071-TXZ119-213-PAZ071-DCZ001-FLZ074-172-MI076-
NYZ176-178-MAZ016-IL014-TNZ027-NJZ106-GAZ044-MD014-262200-

...Gateway Observations for Charleston International...

CITY           SKY/WX    TMP DP  RH WIND       PRES   REMARKS
Chas Airport   PTSUNNY   75  58  55 SW14      29.83R
Seattle        FAIR      76  46  34 NW8       29.97F
Charlotte      LGT RAIN  67  56  67 NW5       29.83F
Dallas DFW     FAIR      71  44  37 VRB6      29.96F
Dallas Love    FAIR      73  45  36 N8        29.96F
Philladelphia  FAIR      66  41  40 VRB7G18   29.82R
Wash National  FAIR      72  36  26 W9G17     29.83F
Baltimore      FAIR      68  37  32 W8G18     29.83S
Miami          PTSUNNY   83  67  58 S7        29.89F
Detroit        FAIR      63  34  33 SW9       29.86F
Newark         FAIR      69  43  38 SW13G20   29.76R
Laguardia      FAIR      69  40  34 W16       29.75R
J F K          PTSUNNY   68  42  38 W16       29.77R
Boston Logan   FAIR      66  41  40 W17G29    29.65R
Ft. Lauderdale FAIR      80  67  64 SE15      29.87F
Chicago O`Hare CLOUDY    65  29  25 W9G17     29.86F
Chicago Midway CLOUDY    65  29  25 W10       29.87F
Houston Bush   FAIR      76  49  38 N8        29.94F
Houston Hobby  FAIR      75  44  33 VRB7      29.93F
Nashville      LGT RAIN  58  53  84 N12       29.87R
Atlanta        PTSUNNY   59  55  87 SE7       29.81F

$$

GAZ044-118-TXZ119-213-NCZ071-DCZ001-MDZ014-506-PAZ021-071-NJZ106-
NYZ176-178-MAZ106-OHZ011-021-055-MIZ076-KYZ091-ILZ014-INZ047-
MNZ060-ONZ431-262200-

...Gateway Observations for Savannah International...

CITY           SKY/WX    TMP DP  RH WIND       PRES   REMARKS
Savannah Arpt  PTSUNNY   80  54  40 VRB7      29.82F
Atlanta        PTSUNNY   59  55  87 SE7       29.81F
Charlotte      LGT RAIN  67  56  67 NW5       29.83F
Dallas DFW     FAIR      71  44  37 VRB6      29.96F
Houston Bush   FAIR      76  49  38 N8        29.94F
Wash National  FAIR      72  36  26 W9G17     29.83F
Wash Dulles    FAIR      70  35  27 NW8       29.83F
Baltimore      FAIR      68  37  32 W8G18     29.83S
Philadelphia   FAIR      66  41  40 VRB7G18   29.82R
Newark         FAIR      69  43  38 SW13G20   29.76R
Laguardia      FAIR      69  40  34 W16       29.75R
J F K          PTSUNNY   68  42  38 W16       29.77R
Boston         FAIR      66  41  40 W17G29    29.65R
Pittsburg      FAIR      61  34  36 W7        29.85F
Akron          FAIR      62  35  36 N3        29.86F
Cleveland      FAIR      54  38  54 N9        29.91F
Cincinnati     PTSUNNY   67  34  29 NW5       29.83F
Columbus       FAIR      64  44  47 CALM      29.83F
Detroit        FAIR      63  34  33 SW9       29.86F
Chicago O`Hare CLOUDY    65  29  25 W9G17     29.86F
Minneapolis    FAIR      65  33  30 NW20G26   29.86S
Indianapolis   FAIR      65  32  29 N6        29.85F
Toronto Canada MOSUNNY   59  36  41 W13       29.82F

$$




USA.gov is the U.S. government's official web portal to all federal, state and local government web resources and services.